Location: Newark
(51.3000°N, 178.2000°W)
Time: 01:51:22
(UTC+00:00)

ISS - Pass Details

Date: 16 May 2021
Orbit: 417 x 422 km, 51.6° (Epoch: 15 June)

Event Time Altitude Azimuth Distance (km) Brightness Sun altitude
Rises 08:24:54 0° 209° (SSW) 2,353 -0.1 -6.6°
Reaches altitude 10° 08:27:21 10° 191° (SSW) 1,495 -1.3 -6.9°
Maximum altitude 08:29:51 20° 143° (SE) 1,051 -2.3 -7.1°
Drops below altitude 10° 08:32:21 10° 95° (E) 1,504 -1.4 -7.4°
Sets 08:34:50 0° 78° (ENE) 2,373 -0.3 -7.7°
